{"data":{"norad_id":52789,"epoch":"2026-09-20T21:09:12.145248Z","epoch_age_seconds":98700,"freshness":"FRESH","line1":"1 52789U 22058E   26263.88139057  .00002594  00000+0  21945-3 0  9991","line2":"2 52789  49.9857  84.9189 0002887 148.1547 211.9573 15.01317766234586","mean_motion":15.01317766,"eccentricity":0.0002887,"inclination_deg":49.9857,"raan_deg":84.9189,"arg_perigee_deg":148.1547,"mean_anomaly_deg":211.9573,"bstar":0.00021945,"rev_number":23458,"period_min":95.915737001943,"perigee_km":560.82793952452,"apogee_km":564.83565490804,"semimajor_km":6940.9687972163,"source":"CELESTRAK","updated_at":"2026-09-21T09:00:08.720779Z"}}